Погода в Новопетрове

Россия / Тюменская область     57°11′22″N   69°08′11″E
темп.,
°C
ветер,
м/с
пор.,
м/с
влажн.,
%
обл.,
%
осадки,
мм/ч
давл.,
гПа
погр.,
м
15 апреля, чт
чт1523:00+11з23866 0.3 102450
02:00+8з310905 0.0 1024173
05:00+7зюз29925 0.0 1024180
08:00+11зюз310746 0.0 1023315
11:00+16з59495 0.0 1021839
14:00+19з59415 0.0 10191337
17:00+20зюз510515 0.0 10181543
20:00+16зюз411675 0.0 1016372
16 апреля, пт
пт1623:00+13зюз310795 0.0 1015271
02:00+11зюз3118099 0.0 1014298
05:00+8с4894100 0.0 1015523
08:00+3с51095100 0.4 1020598
11:00+7с684843 0.6 10221544
14:00+8с683681 0.0 10232148
17:00+6с56375 0.0 10251856
20:00+2ссв37535 0.0 1027263
17 апреля, сб
сб1723:000св23675 0.0 102769
02:00−1ююв24735 0.0 102695
05:00−2юз247659 0.0 1026108
08:00+3з375196 0.0 1025519
11:00+7зсз4738100 0.0 10232044
14:00+8зсз4739100 0.0 10222087
17:00+8зсз4845100 0.1 10212068
20:00+5зсз1162100 0.1 101910
18 апреля, вс
вс1823:00+4юз2367100 0.1 101753
02:00+3юз31167100 0.0 1014316
05:00+4зюз41267100 0.0 1010538
08:00+4зюз51169100 0.0 10081127
11:00+3зсз61088100 1.1 10071023
14:00+1ссз81165100 1.1 10111612
17:00−4с81464100 1.3 10181561
20:00−6ссз7135745 0.1 10221403
19 апреля, пн
пн1923:00−7с613525 0.1 10251277
02:00−8с611555 0.0 10271218
05:00−8с510585 0.0 10291145
08:00−7с684599 0.0 10301421
11:00−4с5834100 0.0 10312013
14:00−3с5734100 0.0 10312268
17:00−2с5735100 0.0 10312136
20:00−4с365085 0.0 1033470